AirNav   BOSE ProFlight Aviation Headset
 
 1494 users online  

CA84 Torrey Pines Gliderport
San Diego, California, USA

GOING TO SAN DIEGO?


FAA INFORMATION EFFECTIVE 21 JUNE 2018

Location

FAA Identifier: CA84
Lat/Long: 32-53-23.0000N / 117-14-49.0000W
32-53.383333N / 117-14.816667W
32.8897222 / -117.2469444
(estimated)
Elevation: 372 ft. / 113 m (estimated)
Variation: 13E (1985)
From city: 11 miles NW of SAN DIEGO, CA
Time zone: UTC -7 (UTC -8 during Standard Time)
Zip code: 92037

Gliderport Operations

Gliderport use: Private use. Permission required prior to landing
Activation date: 11/1961
Control tower: no
ARTCC: LOS ANGELES CENTER
FSS: SAN DIEGO FLIGHT SERVICE STATION
Attendance: UNATNDD
Wind indicator: no
Segmented circle: no

Gliderport Communications

WX ASOS at MYF (7 nm SE): PHONE 858-576-4337
WX ASOS at SAN (10 nm S): PHONE 619-296-8934
WX AWOS-3P at SEE (14 nm E): 125.45 (619-449-1228)
WX ASOS at CRQ (14 nm N): PHONE 760-930-0864
WX ASOS at RNM (19 nm NE): 132.025 (760-789-0736)

Nearby radio navigation aids

VOR radial/distance  VOR name  Freq  Var
MZBr335/6.5MISSION BAY VORTAC117.8015E
PGYr307/21.5POGGI VORTAC109.8014E
OCNr143/22.7OCEANSIDE VORTAC115.3015E
TIJr311/25.7TIJUANA VOR/DME116.5014E
JLIr231/36.5JULIAN VORTAC114.0015E

Gliderport Services

Airframe service: NONE
Powerplant service: NONE

Runway Information

Runway 9/27

Dimensions: 1500 x 30 ft. / 457 x 9 m
Surface: asphalt
RUNWAY 9  RUNWAY 27
Traffic pattern: leftleft
Obstructions: nonetrees, 100 ft. from runway

Gliderport Ownership and Management from official FAA records

Ownership: Publicly-owned
Owner: CITY OF SAN DIEGO
Manager: JIM FROST
4740 HARBINSON AVE
LA MESA, CA 91941
Phone 619-461-9614
WORK PHONE 619-535-9505 EXT 1585

Additional Remarks

GLIDER PORT IS LEASED FM CITY TO THE ASSOCD GLIDER CLUB OF SOUTHERN CALIF FOR STUDENT TRAINING & RIDGE SOARING.
ALL ACFT ARE TRAILERED GLIDERS.
ROLLING RWY .6 PERCENT GRADIENT.
EXTENSIVE HANG GLIDER OPERATIONS ON WEEKENDS AND WEEKDAYS.

Instrument Procedures

There are no published instrument procedures at CA84.

Some nearby airports with instrument procedures:

KNKX - Miramar MCAS (Joe Foss Field) Airport (5 nm E)
KMYF - Montgomery-Gibbs Executive Airport (7 nm SE)
KSAN - San Diego International Airport (10 nm S)
KNZY - North Island Naval Air Station (Halsey Field) (12 nm S)
KSEE - Gillespie Field Airport (14 nm E)
KCRQ - Mc Clellan-Palomar Airport (14 nm N)
KRNM - Ramona Airport (19 nm NE)
 
Loc | Ops | Rwys | IFR | FBO | Links
Com | Nav | Svcs | Stats | Notes


 
Area around CA84 (Torrey Pines Gliderport)
 
Road maps at: MapQuest Bing Google
 
Aerial photo
WARNING: Photo may not be current or correct
Aerial photo of CA84 (Torrey Pines Gliderport)
Photo by Doug Fronius
Photo taken 13-Mar-2004
from a 1942 Schweizer TG-2 sailplane.

Do you have a better or more recent aerial photo of Torrey Pines Gliderport that you would like to share? If so, please send us your photo.

 
Sectional chart

 
Airport distance calculator
Flying to Torrey Pines Gliderport? Find the distance to fly.

From to CA84

Sunrise and sunset
Times for 16-Jul-2018
 Local
(UTC-7)
 Zulu
(UTC)
Morning civil twilight05:2512:25
Sunrise05:5312:53
Sunset19:5702:57
Evening civil twilight20:2503:25

Current date and time
Zulu (UTC)  16-Jul-2018 21:51:38
Local (UTC-7)  16-Jul-2018 14:51:38
 
METAR
KNKX 
6nm E 
162055Z 28009KT 250V310 10SM FEW015 FEW250 28/17 A2996 RMK A02 SLP138 T02830172 56010
KMYF 
7nm SE 
162053Z 25009KT 10SM CLR 26/17 A2996 RMK AO2 SLP142 T02560172 56010
KSAN 
10nm S 
162051Z 22008KT 10SM FEW012 SCT100 SCT250 25/18 A2997 RMK AO2 SLP148 T02500178 58012
KNZY 
11nm S 
162052Z 26008KT 10SM FEW008 BKN160 23/18 A2995 RMK SLP142 T02230178 58012
KCRQ 
15nm N 
162053Z AUTO 23008KT 10SM CLR 22/18 A2995 RMK AO2 SLP139 T02220178 56010
KSEE 
15nm E 
162047Z 22009KT 10SM SKC 29/17 A2995
KRNM 
19nm NE 
162053Z 27010G15KT 10SM CLR 33/15 A2997 RMK AO2 SLP131 T03280150 56010
TAF
KNKX 
6nm E 
1615/1715 VRB05KT 9999 OVC009 QNH2994INS BECMG 1616/1618 27008KT 9999 FEW020 SCT080 QNH2989INS FM170430 VRB05KT 9999 SKC QNH2991INS BECMG 1708/1710 VRB05KT 9999 OVC008 QNH2990INS TEMPO 1710/1715 SCT009 T27/1621Z T20/1713Z
KSAN 
10nm S 
161937Z 1620/1724 25010KT P6SM FEW015 SCT150 FM170100 25007KT P6SM OVC013 FM171600 VRB04KT P6SM SCT013 SCT200 FM171900 26010KT P6SM SCT200
KNZY 
11nm S 
1615/1715 VRB06KT 9999 BKN010 QNH2993INS BECMG 1616/1618 26010KT 9999 FEW012 FEW070 SCT160 QNH2991INS FM170200 VRB06KT 9999 BKN011 BKN160 QNH2990INS FM170800 VRB06KT 9999 OVC008 QNH2992INS T24/1622Z T18/1712Z FS30103
KCRQ 
15nm N 
161736Z 1618/1718 22006KT P6SM SCT010 SCT200 FM162000 25008KT P6SM SCT200 FM170200 VRB04KT P6SM BKN011 FM171700 VRB04KT P6SM SCT010 SCT200
NOTAMs
Click for the latest NOTAMs
NOTAMs are issued by the DoD/FAA and will open in a separate window not controlled by AirNav.

 

 
 

Would you like to see your business listed on this page?

 If your business provides an interesting product or service to pilots, flight crews, aircraft, or users of the Torrey Pines Gliderport, you should consider listing it here.  To start the listing process, click on the button below
 
Add a business
 

Other Pages about Torrey Pines Gliderport

www.agcsc.org/torrey_pines_info.html
 
Update a link
 
Copyright © AirNav, LLC. All rights reserved. Privacy Policy  Contact